Content
SEND FEEDBACK

Daily
Averages
Monthly
Summary
United Kingdom

LEEDS, ENGLAND


Home > Europe > United Kingdom > England
Elevation: 154 feet     Latitude: 53 48N     Longitude: 001 33W

WEATHER
 
SELECT A DAY
Number of Records: 298,057;   Date Range: 7/1/96 - 7/20/14
 
SHARE

PRINT THIS DATA

[ ← Previous Day ]
WEATHER ALMANAC - JANUARY 12, 2014
[ Next Day → ]
[ °C ]   °F
Weather ElementAverageHighLow
Temperature31.3 °F41 °F (11:00 pm) (5:20 pm)
Dewpoint30.7 °F41 °F (11:00 pm) (7:00 pm)
Humidity96.7 %100 % (12:50 am)71 % (2:00 am)
Barometer29.89 in30.15 in (12:20 am)29.53 in (10:50 pm)
Wind Speed10.8 mph24.2 mph (6:00 pm)
Weather ElementAverage
Visibility1.8 mi
Wind DirectionSE (135.2 °)

Weather ElementTotal
Precipitation---
Heating Degree Days44.5 (Base 65)
Averaged from 71 records on January 12, 2014
WEATHER CONDITIONS BREAKOUT
WIND DIRECTION BREAKOUT
WEATHER BY HOUR - JANUARY 12, 2014
[ °C ]   °F
Local TimeTemperatureDewpointHumidityBarometerVisibilityWind DirectionWind SpeedGust SpeedPrecipitationEventsConditions
12:20 AM33.8 °F32.0 °F93 %30.15 inVariable2.3 mphClear
12:50 AM32.0 °F32.0 °F100 %30.15 inSSW (210°)5.8 mphClear
1:00 AM35.0 °F30.0 °F74 %SW (230°)8.1 mph
1:20 AM33.8 °F32.0 °F93 %30.15 inVariable2.3 mphClear
1:50 AM32.0 °F32.0 °F100 %30.15 inWest (260°)6.9 mphClear
2:00 AM36.0 °F30.0 °F71 %WSW (250°)3.5 mph
2:20 AM30.2 °F30.2 °F100 %30.15 inVariable1.2 mphClear
2:50 AM30.2 °F28.4 °F93 %30.15 inSSW (210°)4.6 mphClear
3:00 AM32.0 °F29.0 °F84 %ESE (110°)6.9 mph
3:20 AM28.4 °F28.4 °F100 %30.12 inSSE (160°)5.8 mphClear
3:50 AM28.4 °F28.4 °F100 %30.12 inSSE (160°)6.9 mphClear
4:00 AM31.0 °F28.0 °F84 %ESE (120°)6.9 mph
4:20 AM28.4 °F28.4 °F100 %30.12 inSE (140°)4.6 mphClear
4:50 AM28.4 °F28.4 °F100 %30.09 inSE (130°)6.9 mphClear
5:00 AM32.0 °F29.0 °F85 %SE (140°)11.5 mph
5:20 AM28.4 °F28.4 °F100 %30.09 inSSE (150°)9.2 mphClear
5:50 AM28.4 °F28.4 °F100 %30.09 inSE (130°)6.9 mphClear
6:00 AM32.0 °F30.0 °F87 %SSE (150°)11.5 mph
6:20 AM28.4 °F28.4 °F100 %30.06 inSE (140°)8.1 mphClear
6:50 AM30.2 °F30.2 °F100 %30.06 inSE (140°)9.2 mphClear
7:00 AM33.0 °F30.0 °F84 %SSE (150°)13.8 mph
7:20 AM28.4 °F28.4 °F100 %30.06 inSE (140°)6.9 mphClear
7:50 AM28.4 °F28.4 °F100 %30.06 inSE (140°)6.9 mphClear
8:00 AM32.0 °F29.0 °F86 %SE (140°)11.5 mph
8:20 AM28.4 °F26.6 °F93 %30.06 inSE (140°)4.6 mphClear
8:50 AM28.4 °F28.4 °F100 %30.04 in6.2 miESE (120°)4.6 mphPartly Cloudy
9:00 AM31.0 °F29.0 °F91 %SE (130°)8.1 mph
9:20 AM30.2 °F30.2 °F100 %30.04 in6.2 miSSE (150°)8.1 mphPartly Cloudy
9:50 AM30.2 °F30.2 °F100 %30.04 in5.0 miSE (140°)11.5 mphPartly Cloudy
10:00 AM31.0 °F30.0 °F93 %ESE (120°)9.2 mph
10:20 AM30.2 °F30.2 °F100 %30.01 in4.3 miSE (140°)12.7 mphPartly Cloudy
10:50 AM30.2 °F30.2 °F100 %30.01 in4.3 miSE (140°)10.4 mphPartly Cloudy
11:00 AM35.0 °F33.0 °F92 %SSE (160°)17.3 mph
11:20 AM32.0 °F32.0 °F100 %29.98 in4.3 miESE (120°)10.4 mphPartly Cloudy
11:50 AM32.0 °F32.0 °F100 %29.95 in3.7 miSE (130°)12.7 mphPartly Cloudy
12:00 PM34.0 °F32.0 °F90 %ESE (120°)11.5 mph
12:20 PM32.0 °F32.0 °F100 %29.92 in2.5 miSE (130°)12.7 mphMostly Cloudy
12:50 PM32.0 °F32.0 °F100 %29.89 in2.8 miESE (120°)11.5 mphMostly Cloudy
1:00 PM33.0 °F33.0 °F97 %ESE (120°)18.4 mph
1:20 PM32.0 °F32.0 °F100 %29.86 in2.2 miESE (120°)12.7 mphMostly Cloudy
1:50 PM32.0 °F32.0 °F100 %29.86 in1.9 miSE (130°)8.1 mphMostly Cloudy
2:00 PM33.0 °F33.0 °F97 %East (100°)11.5 mph
2:20 PM33.8 °F33.8 °F100 %29.83 in1.9 miSE (130°)10.4 mphMostly Cloudy
2:50 PM33.8 °F33.8 °F100 %29.83 in1.9 miESE (120°)12.7 mphMostly Cloudy
3:00 PM33.0 °F33.0 °F100 %NE (50°)10.4 mph
3:20 PM33.8 °F33.8 °F100 %29.80 in1.6 miESE (120°)13.8 mphMostly Cloudy
3:50 PM33.8 °F33.8 °F100 %29.80 in1.6 miSE (130°)12.7 mphMostly Cloudy
4:00 PM35.0 °F35.0 °F100 %ESE (110°)12.7 mph
4:20 PM35.6 °F35.6 °F100 %29.77 in1.6 miSE (130°)12.7 mphMostly Cloudy
4:50 PM35.6 °F35.6 °F100 %29.77 in1.0 miSE (140°)12.7 mphMostly Cloudy
5:00 PM36.0 °F36.0 °F99 %East (100°)13.8 mph
5:20 PM0.0 °F0.0 °F29.74 in0.5 miSE (130°)13.8 mphFogFog
5:50 PM35.6 °F35.6 °F100 %29.71 in0.4 miSE (130°)13.8 mphFogFog
6:00 PM36.0 °F36.0 °F100 %SSE (150°)24.2 mph
6:20 PM35.6 °F35.6 °F100 %29.71 in0.2 miSE (130°)15.0 mphFog-RainLight Rain Showers
6:50 PM35.6 °F35.6 °F100 %29.68 in0.2 miSE (130°)12.7 mphFog-RainLight Rain Showers
7:00 PM37.0 °F37.0 °F100 %SE (140°)23.0 mph
7:20 PM37.4 °F37.4 °F100 %29.65 in0.3 miSE (130°)15.0 mphFog-RainLight Rain
7:50 PM37.4 °F37.4 °F100 %29.65 in0.2 miSE (140°)12.7 mphFog-RainLight Rain
8:00 PM38.0 °F38.0 °F99 %SE (130°)24.2 mph
8:20 PM37.4 °F37.4 °F100 %29.62 in0.3 miSE (140°)11.5 mphFog-RainLight Rain
8:50 PM0.0 °F0.0 °F29.59 in0.2 miSE (140°)11.5 mphFog-RainLight Rain
9:00 PM39.0 °F39.0 °F98 %SE (140°)18.4 mph
9:20 PM37.4 °F37.4 °F100 %29.59 in0.2 miSE (140°)11.5 mphFog-RainLight Rain
9:50 PM0.0 °F0.0 °F29.56 in0.2 miSSE (150°)10.4 mphFog-RainLight Rain
10:00 PM40.0 °F40.0 °F98 %SSE (150°)23.0 mph
10:20 PM39.2 °F39.2 °F100 %29.56 in0.2 miSSE (150°)9.2 mphFog-RainLight Rain
10:50 PM0.0 °F0.0 °F29.53 in0.2 miSE (140°)9.2 mphFog-RainLight Rain
11:00 PM41.0 °F41.0 °F98 %South (170°)17.3 mph
11:20 PM39.2 °F39.2 °F100 %29.53 in0.3 miSSE (150°)8.1 mphFog-RainLight Rain
11:50 PM39.2 °F39.2 °F100 %29.53 in0.2 miSSE (160°)5.8 mphFog-RainLight Rain
Hourly data recorded from EGNM, located miles away from Leeds, England







STORIES FROM OUR PARTNERS